TimeMST,TemperatureF,Dew PointF,Humidity,Sea Level PressureIn,VisibilityMPH,Wind Direction,Wind SpeedMPH,Gust SpeedMPH,PrecipitationIn,Events,Conditions,WindDirDegrees,DateUTC
12:15 AM,35.6,12.2,38,30.38,10.0,NNE,6.9,-,N/A,,Clear,20,2013-01-19 07:15:00
12:35 AM,35.6,12.2,38,30.38,10.0,NNE,4.6,-,N/A,,Clear,30,2013-01-19 07:35:00
12:55 AM,33.8,12.2,41,30.38,10.0,Calm,Calm,-,N/A,,Clear,0,2013-01-19 07:55:00
1:15 AM,33.8,12.2,41,30.39,10.0,Calm,Calm,-,N/A,,Clear,0,2013-01-19 08:15:00
1:35 AM,30.2,12.2,47,30.39,10.0,Calm,Calm,-,N/A,,Clear,0,2013-01-19 08:35:00
1:55 AM,30.2,10.4,44,30.39,10.0,SSE,4.6,-,N/A,,Clear,150,2013-01-19 08:55:00
2:35 AM,30.2,12.2,47,30.40,10.0,Calm,Calm,-,N/A,,Clear,0,2013-01-19 09:35:00
2:55 AM,28.4,12.2,51,30.40,10.0,Calm,Calm,-,N/A,,Clear,0,2013-01-19 09:55:00
3:15 AM,28.4,12.2,51,30.40,10.0,Calm,Calm,-,N/A,,Clear,0,2013-01-19 10:15:00
3:35 AM,28.4,12.2,51,30.39,10.0,Calm,Calm,-,N/A,,Clear,0,2013-01-19 10:35:00
3:55 AM,28.4,12.2,51,30.40,10.0,Calm,Calm,-,N/A,,Clear,0,2013-01-19 10:55:00
4:15 AM,26.6,12.2,55,30.40,10.0,Calm,Calm,-,N/A,,Clear,0,2013-01-19 11:15:00
4:35 AM,28.4,12.2,51,30.41,10.0,South,4.6,-,N/A,,Clear,170,2013-01-19 11:35:00
4:55 AM,24.8,10.4,54,30.41,10.0,SSE,4.6,-,N/A,,Clear,150,2013-01-19 11:55:00
5:15 AM,26.6,10.4,51,30.41,10.0,Calm,Calm,-,N/A,,Clear,0,2013-01-19 12:15:00
5:35 AM,26.6,12.2,55,30.42,10.0,Calm,Calm,-,N/A,,Clear,0,2013-01-19 12:35:00
5:55 AM,24.8,10.4,54,30.42,10.0,Calm,Calm,-,N/A,,Clear,0,2013-01-19 12:55:00
6:15 AM,24.8,12.2,59,30.42,10.0,Calm,Calm,-,N/A,,Clear,0,2013-01-19 13:15:00
6:35 AM,26.6,10.4,51,30.43,10.0,SSW,4.6,-,N/A,,Clear,200,2013-01-19 13:35:00
7:15 AM,24.8,10.4,54,30.44,10.0,Calm,Calm,-,N/A,,Clear,0,2013-01-19 14:15:00
7:35 AM,24.8,12.2,59,30.44,10.0,Calm,Calm,-,N/A,,Clear,0,2013-01-19 14:35:00
7:55 AM,24.8,12.2,59,30.45,10.0,Calm,Calm,-,N/A,,Clear,0,2013-01-19 14:55:00
8:15 AM,23.0,10.4,59,30.46,10.0,NNW,3.5,-,N/A,,Clear,340,2013-01-19 15:15:00
8:35 AM,24.8,14.0,64,30.46,10.0,Calm,Calm,-,N/A,,Clear,0,2013-01-19 15:35:00
8:55 AM,26.6,15.8,64,30.47,10.0,Calm,Calm,-,N/A,,Clear,0,2013-01-19 15:55:00
9:15 AM,26.6,14.0,59,30.48,10.0,Calm,Calm,-,N/A,,Clear,0,2013-01-19 16:15:00
9:35 AM,28.4,14.0,55,30.48,10.0,SSW,4.6,-,N/A,,Clear,200,2013-01-19 16:35:00
9:55 AM,30.2,14.0,51,30.48,10.0,Calm,Calm,-,N/A,,Clear,0,2013-01-19 16:55:00
10:15 AM,32.0,15.8,51,30.49,10.0,Calm,Calm,-,N/A,,Clear,0,2013-01-19 17:15:00
10:35 AM,33.8,15.8,48,30.49,10.0,South,5.8,-,N/A,,Clear,180,2013-01-19 17:35:00
10:55 AM,35.6,15.8,44,30.48,10.0,South,4.6,-,N/A,,Clear,190,2013-01-19 17:55:00
11:15 AM,37.4,15.8,41,30.48,10.0,SSW,5.8,-,N/A,,Clear,210,2013-01-19 18:15:00
11:35 AM,39.2,15.8,39,30.46,10.0,SSW,3.5,-,N/A,,Clear,210,2013-01-19 18:35:00
12:15 PM,42.8,15.8,34,30.43,10.0,Calm,Calm,-,N/A,,Clear,0,2013-01-19 19:15:00
12:35 PM,42.8,17.6,36,30.41,10.0,Calm,Calm,-,N/A,,Clear,0,2013-01-19 19:35:00
12:55 PM,42.8,17.6,36,30.40,10.0,Calm,Calm,-,N/A,,Clear,0,2013-01-19 19:55:00
1:15 PM,44.6,17.6,34,30.39,10.0,Calm,Calm,-,N/A,,Clear,0,2013-01-19 20:15:00
1:55 PM,46.4,15.8,29,30.37,10.0,Calm,Calm,-,N/A,,Clear,0,2013-01-19 20:55:00
2:15 PM,48.2,17.6,30,30.37,10.0,Calm,Calm,-,N/A,,Clear,0,2013-01-19 21:15:00
2:35 PM,48.2,17.6,30,30.36,10.0,Calm,Calm,-,N/A,,Clear,0,2013-01-19 21:35:00
2:55 PM,51.8,17.6,26,30.35,10.0,Calm,Calm,-,N/A,,Clear,0,2013-01-19 21:55:00
3:15 PM,51.8,15.8,24,30.34,10.0,Calm,Calm,-,N/A,,Clear,0,2013-01-19 22:15:00
3:35 PM,53.6,15.8,22,30.34,10.0,Calm,Calm,-,N/A,,Clear,0,2013-01-19 22:35:00
3:55 PM,51.8,15.8,24,30.34,10.0,Calm,Calm,-,N/A,,Clear,0,2013-01-19 22:55:00
4:15 PM,53.6,15.8,22,30.33,10.0,ESE,3.5,-,N/A,,Clear,120,2013-01-19 23:15:00
4:35 PM,55.4,17.6,23,30.33,10.0,Calm,Calm,-,N/A,,Clear,0,2013-01-19 23:35:00
5:15 PM,51.8,15.8,24,30.32,10.0,Calm,Calm,-,N/A,,Clear,0,2013-01-20 00:15:00
5:35 PM,51.8,15.8,24,30.32,10.0,Calm,Calm,-,N/A,,Clear,0,2013-01-20 00:35:00
5:55 PM,50.0,15.8,26,30.32,10.0,SW,3.5,-,N/A,,Clear,220,2013-01-20 00:55:00
6:15 PM,46.4,15.8,29,30.33,10.0,Calm,Calm,-,N/A,,Clear,0,2013-01-20 01:15:00
6:35 PM,48.2,12.2,24,30.33,10.0,ENE,11.5,-,N/A,,Clear,70,2013-01-20 01:35:00
6:55 PM,46.4,12.2,25,30.34,10.0,NE,9.2,-,N/A,,Clear,40,2013-01-20 01:55:00
7:15 PM,46.4,12.2,25,30.34,10.0,NNE,8.1,-,N/A,,Clear,30,2013-01-20 02:15:00
7:35 PM,48.2,12.2,24,30.34,10.0,North,8.1,-,N/A,,Clear,360,2013-01-20 02:35:00
7:55 PM,44.6,10.4,25,30.34,10.0,NNE,12.7,-,N/A,,Clear,20,2013-01-20 02:55:00
8:15 PM,44.6,12.2,27,30.35,10.0,NNE,6.9,-,N/A,,Clear,20,2013-01-20 03:15:00
8:35 PM,39.2,10.4,31,30.36,10.0,SE,3.5,-,N/A,,Clear,130,2013-01-20 03:35:00
8:55 PM,41.0,12.2,31,30.36,10.0,East,4.6,-,N/A,,Clear,100,2013-01-20 03:55:00
9:15 PM,41.0,12.2,31,30.37,10.0,South,3.5,-,N/A,,Clear,190,2013-01-20 04:15:00
9:35 PM,42.8,14.0,31,30.37,10.0,ESE,3.5,-,N/A,,Clear,110,2013-01-20 04:35:00
9:55 PM,39.2,12.2,33,30.37,10.0,SW,3.5,-,N/A,,Clear,230,2013-01-20 04:55:00
10:15 PM,37.4,12.2,36,30.38,10.0,South,3.5,-,N/A,,Clear,170,2013-01-20 05:15:00
10:35 PM,35.6,12.2,38,30.38,10.0,ESE,3.5,-,N/A,,Clear,110,2013-01-20 05:35:00
10:55 PM,37.4,12.2,36,30.38,10.0,SE,3.5,-,N/A,,Clear,140,2013-01-20 05:55:00
11:15 PM,35.6,12.2,38,30.39,10.0,South,3.5,-,N/A,,Clear,180,2013-01-20 06:15:00
11:35 PM,37.4,12.2,36,30.39,10.0,South,4.6,-,N/A,,Clear,190,2013-01-20 06:35:00